[[{"header":{"parameterUnit":"m.s-1","parameterCategory":1,"la1":30.2991,"la2":30.254,"lo1":-89.0895,"lo2":-89.0444,"dy":0.0017,"dx":0.0017,"nx":28,"ny":28,"refTime":"2025-09-03T21:00:00:Z","depth":0,"parameterNumber":2,"parameterNumberName":"U-component_of_WINDS"},"data":[0,0,0,0,0,0,0,0,0,0,0,0,0,0,0,0,0,0,0,0,0,0,0,0,0,0,0,0,0,0,0,0,0,0,0,0,0,0,0,0,0,0,0,0,0,0,0,0,0,0,0,0,0,0,0,0,0,0,-0.3204,-0.3204,0,-0.3141,-0.3141,-0.314,-0.3092,-0.3091,-0.3091,-0.3091,-0.3025,-0.3024,-0.3023,0,0,0,0,0,0,0,0,0,0,0,0,0,-0.3283,-0.3281,-0.3204,-0.3203,-0.3203,-0.3141,-0.3141,-0.314,-0.3092,-0.3091,-0.3091,-0.309,-0.3026,-0.3024,-0.3023,0,0,0,0,0,0,0,0,0,0,0,0,0,-0.3237,-0.3281,-0.3204,-0.3171,-0.3168,-0.3142,-0.3141,-0.314,-0.3092,-0.3091,-0.3091,-0.309,-0.3026,-0.3024,-0.3022,-0.3023,0,0,-0.3016,-0.3015,0,0,0,0,0,0,0,0,-0.324,-0.3234,-0.3177,-0.3174,-0.317,-0.3124,-0.3144,-0.3101,-0.3092,-0.3121,-0.3091,-0.309,-0.3059,-0.3054,-0.3044,-0.302,-0.3018,-0.3016,-0.3015,-0.3014,-0.3013,0,0,0,0,0,0,0,-0.3243,-0.3237,-0.3179,-0.3176,-0.3172,-0.316,-0.3153,-0.3136,-0.3094,-0.3118,-0.3115,-0.3108,-0.3056,-0.3046,-0.3042,-0.3017,-0.3016,-0.3014,-0.3013,-0.3012,-0.2992,-0.2993,0,0,0,0,0,0,-0.3251,-0.324,-0.3181,-0.3177,-0.3204,-0.3159,-0.3151,-0.3139,-0.3094,-0.3087,-0.3109,-0.3106,-0.3049,-0.3044,-0.3039,-0.3038,-0.3014,-0.3012,-0.3011,-0.2991,-0.2992,-0.2993,0,0,0,0,0,0,-0.3253,-0.3247,-0.3184,-0.3208,-0.3199,-0.3158,-0.3146,-0.3138,-0.3127,-0.3087,-0.3079,-0.3105,-0.3049,-0.3042,-0.3028,-0.3035,-0.3011,-0.301,-0.299,-0.2991,-0.2992,-0.3035,0,0,0,0,0,0,-0.3256,-0.3248,-0.3248,-0.3208,-0.3198,-0.3174,-0.3146,-0.3138,-0.3124,-0.312,-0.3082,-0.3075,-0.3048,-0.3031,-0.3026,-0.3032,-0.3008,-0.299,-0.2991,-0.2992,-0.3033,-0.3037,-0.3041,0,0,0,0,0,-0.3259,-0.3262,-0.3248,-0.3241,-0.3197,-0.3174,-0.3168,-0.3137,-0.3125,-0.3125,-0.3099,-0.3076,-0.3035,-0.303,-0.3024,-0.3029,-0.2989,-0.2991,-0.2992,-0.3031,-0.3036,-0.3041,0,0,0,0,0,0,-0.3303,-0.3256,-0.324,-0.323,-0.3207,-0.3166,-0.3165,-0.3144,-0.3123,-0.312,-0.3083,-0.3074,-0.3064,-0.3045,-0.3041,-0.3028,-0.3009,-0.3009,-0.3041,-0.3046,-0.305,-0.3055,-0.3006,0,0,0,0,0,-0.3311,-0.3297,-0.3257,-0.3252,-0.3242,-0.3206,-0.3195,-0.3173,-0.3147,-0.3136,-0.3109,-0.3085,-0.3066,-0.3055,-0.3036,-0.303,-0.3021,-0.3031,-0.3035,-0.3038,-0.3039,-0.3035,-0.3039,-0.2998,-0.2998,-0.2997,0,0,-0.3329,-0.3302,-0.3295,-0.3261,-0.324,-0.3226,-0.3197,-0.3184,-0.3173,-0.3134,-0.3119,-0.3099,-0.3069,-0.3059,-0.3054,-0.3043,-0.3049,-0.304,-0.3044,-0.3042,-0.3037,-0.3041,-0.3044,-0.2999,-0.2998,-0.2998,0,0,-0.3354,-0.3332,-0.3326,-0.3306,-0.3275,-0.3251,-0.325,-0.3213,-0.3198,-0.3182,-0.3153,-0.314,-0.3109,-0.3089,-0.3075,-0.3094,-0.3072,-0.3089,-0.311,-0.3107,-0.311,-0.3113,-0.312,-0.3123,-0.3089,-0.309,-0.309,0,-0.338,-0.3358,-0.3325,-0.3314,-0.33,-0.3265,-0.3258,-0.324,-0.3205,-0.3196,-0.3185,-0.3146,-0.3123,-0.3108,-0.3113,-0.3103,-0.31,-0.3093,-0.3113,-0.3115,-0.3117,-0.3123,-0.3126,-0.3092,-0.3092,-0.3091,-0.3091,0,-0.3391,-0.3377,-0.3376,-0.3343,-0.3328,-0.332,-0.3286,-0.3275,-0.3255,-0.3233,-0.3218,-0.319,-0.3165,-0.3159,-0.3139,-0.3142,-0.3137,-0.312,-0.31,-0.3124,-0.3129,-0.3131,-0.3095,-0.3094,-0.3094,-0.3093,0,0,-0.3442,-0.3392,-0.3392,-0.3377,-0.334,-0.3328,-0.3318,-0.3294,-0.3286,-0.3263,-0.3253,-0.3229,-0.3213,-0.3197,-0.3174,-0.3171,-0.3189,-0.3154,-0.3153,-0.3162,-0.3191,-0.3204,-0.3207,-0.3174,-0.3175,-0.3175,-0.3193,0,-0.3461,-0.3441,-0.3412,-0.3401,-0.3388,-0.3354,-0.3346,-0.3323,-0.3301,-0.3287,-0.3263,-0.3246,-0.3227,-0.3217,-0.3213,-0.3188,-0.3194,-0.3186,-0.3165,-0.3165,-0.3174,-0.321,-0.3223,-0.3242,-0.3195,-0.3195,-0.3196,0,-0.3481,-0.346,-0.3449,-0.3414,-0.3407,-0.34,-0.3376,-0.3362,-0.3335,-0.332,-0.3303,-0.3279,-0.3267,-0.3249,-0.3232,-0.3227,-0.3217,-0.3204,-0.3204,-0.32,-0.3182,-0.3208,-0.3247,-0.325,-0.3198,-0.3198,-0.3198,0,-0.352,-0.3489,-0.3478,-0.3466,-0.3425,-0.3421,-0.3404,-0.3376,-0.3364,-0.3343,-0.3334,-0.3312,-0.33,-0.3283,-0.3254,-0.3244,-0.324,-0.322,-0.3228,-0.3228,-0.3228,-0.3228,-0.3267,-0.3222,-0.3222,-0.3222,-0.3222,0,-0.3545,-0.3539,-0.3495,-0.3488,-0.3481,-0.3447,-0.3441,-0.3421,-0.3397,-0.3386,-0.3356,-0.3346,-0.3308,-0.3294,-0.3271,-0.326,-0.3255,-0.3243,-0.3236,-0.3245,-0.3247,-0.3238,-0.3236,-0.3222,-0.3222,-0.3222,-0.3222,0,-0.3586,-0.3556,-0.3542,-0.3505,-0.3496,-0.3492,-0.346,-0.3453,-0.343,-0.3416,-0.3411,-0.3376,-0.3358,-0.3327,-0.33,-0.3285,-0.3279,-0.3268,-0.3288,-0.3284,-0.3294,-0.3293,-0.3328,-0.3331,-0.3284,-0.3284,-0.3285,0,-0.3604,-0.3599,-0.3561,-0.3552,-0.3536,-0.3521,-0.3508,-0.3475,-0.3463,-0.3433,-0.3429,-0.3409,-0.3391,-0.3364,-0.3336,-0.3315,-0.3304,-0.3318,-0.3301,-0.331,-0.3305,-0.3306,-0.3305,-0.3322,-0.3322,-0.3323,-0.3323,0,-0.3639,-0.3625,-0.3608,-0.3586,-0.3571,-0.3552,-0.3532,-0.3526,-0.3489,-0.3477,-0.3458,-0.3444,-0.3417,-0.3398,-0.3373,-0.3355,-0.3334,-0.3329,-0.333,-0.3339,-0.335,-0.3345,-0.3299,-0.3328,-0.3328,-0.3327,-0.3327,-0.3327,-0.3669,-0.3664,-0.3636,-0.3618,-0.36,-0.3581,-0.3573,-0.3549,-0.3533,-0.3509,-0.349,-0.3473,-0.3447,-0.3412,-0.3396,-0.3382,-0.3372,-0.3373,-0.3373,-0.3374,-0.3378,-0.3353,-0.3378,-0.3378,-0.3377,-0.3377,-0.3377,0,-0.3703,-0.3684,-0.3668,-0.3641,-0.3627,-0.3607,-0.3584,-0.3574,-0.3559,-0.3537,-0.352,-0.3499,-0.348,-0.3451,-0.343,-0.3425,-0.3414,-0.342,-0.342,-0.3417,-0.3388,-0.339,-0.3429,-0.3429,-0.3429,-0.3429,-0.3429,-0.3429,-0.3719,-0.3708,-0.3691,-0.3671,-0.3652,-0.3635,-0.3623,-0.3606,-0.3588,-0.3566,-0.3551,-0.3532,-0.3507,-0.3484,-0.3466,-0.3458,-0.3452,-0.3461,-0.345,-0.3424,-0.3419,-0.3414,-0.3416,-0.346,-0.346,-0.348,-0.348,-0.348]},{"header":{"parameterUnit":"m.s-1","parameterCategory":1,"la1":30.2991,"la2":30.254,"lo1":-89.0895,"lo2":-89.0444,"dy":0.0017,"dx":0.0017,"nx":28,"ny":28,"refTime":"2025-09-03T21:00:00:Z","depth":0,"parameterNumber":3,"parameterNumberName":"V-component_of_WINDS"},"data":[0,0,0,0,0,0,0,0,0,0,0,0,0,0,0,0,0,0,0,0,0,0,0,0,0,0,0,0,0,0,0,0,0,0,0,0,0,0,0,0,0,0,0,0,0,0,0,0,0,0,0,0,0,0,0,0,0,0,4.0628,4.0628,0,4.0606,4.0606,4.0606,4.0623,4.0624,4.0625,4.0626,4.0597,4.0596,4.0595,0,0,0,0,0,0,0,0,0,0,0,0,0,4.0681,4.068,4.0628,4.0628,4.0628,4.0606,4.0606,4.0606,4.0623,4.0624,4.0625,4.0626,4.0598,4.0596,4.0594,0,0,0,0,0,0,0,0,0,0,0,0,0,4.0658,4.068,4.0628,4.0634,4.0634,4.0606,4.0606,4.0605,4.0623,4.0624,4.0625,4.0626,4.0599,4.0596,4.0594,4.0558,0,0,4.0587,4.0587,0,0,0,0,0,0,0,0,4.066,4.0656,4.0634,4.0634,4.0634,4.0619,4.0614,4.0589,4.0623,4.0627,4.0626,4.0627,4.0603,4.0601,4.0594,4.0556,4.0555,4.0587,4.0586,4.0585,4.0584,0,0,0,0,0,0,0,4.0661,4.0657,4.0619,4.0633,4.0633,4.0636,4.0634,4.0609,4.0609,4.0627,4.0628,4.0626,4.0604,4.0596,4.0593,4.0555,4.0587,4.0585,4.0584,4.0583,4.0484,4.0483,0,0,0,0,0,0,4.0663,4.0659,4.062,4.0619,4.065,4.0634,4.0632,4.0622,4.0609,4.0608,4.0625,4.0626,4.0599,4.0596,4.0592,4.0548,4.0585,4.0583,4.0582,4.0486,4.0484,4.0483,0,0,0,0,0,0,4.0664,4.0659,4.0621,4.0639,4.0634,4.0632,4.0621,4.0621,4.0614,4.0608,4.0607,4.0617,4.06,4.0596,4.0566,4.0547,4.0582,4.058,4.0487,4.0485,4.0483,4.0459,0,0,0,0,0,0,4.0665,4.066,4.0647,4.0639,4.0633,4.0597,4.062,4.062,4.0611,4.0613,4.0601,4.06,4.0601,4.0569,4.0564,4.0545,4.0578,4.0489,4.0486,4.0484,4.0461,4.0456,4.0452,0,0,0,0,0,4.0667,4.064,4.0646,4.0641,4.0618,4.0596,4.0592,4.0596,4.0609,4.0595,4.0591,4.06,4.055,4.0566,4.056,4.054,4.049,4.0487,4.0484,4.0463,4.0457,4.0452,0,0,0,0,0,0,4.0644,4.0639,4.0646,4.0615,4.0606,4.0599,4.0581,4.0589,4.0574,4.0577,4.058,4.0577,4.0546,4.054,4.0558,4.0503,4.0522,4.0518,4.0508,4.0502,4.0498,4.0499,4.0576,0,0,0,0,0,4.0635,4.062,4.0615,4.0589,4.0584,4.0583,4.0574,4.0577,4.0567,4.0563,4.0557,4.0545,4.0526,4.0514,4.0497,4.0461,4.0457,4.0444,4.0439,4.0435,4.0431,4.041,4.0404,4.0473,4.0473,4.0473,0,0,4.0617,4.0612,4.0602,4.0584,4.0577,4.0559,4.058,4.056,4.0546,4.0559,4.0531,4.0526,4.0513,4.048,4.0465,4.0474,4.0411,4.0432,4.0429,4.0426,4.0407,4.04,4.0394,4.0471,4.0472,4.0472,0,0,4.0574,4.057,4.0547,4.054,4.053,4.053,4.0525,4.0517,4.0514,4.0487,4.0496,4.0479,4.0448,4.0438,4.0429,4.0382,4.0389,4.0377,4.0352,4.0331,4.0326,4.0321,4.0303,4.0297,4.0373,4.0373,4.0373,0,4.0552,4.0527,4.0534,4.0513,4.0504,4.0518,4.0493,4.0486,4.047,4.0462,4.0474,4.0435,4.0427,4.0391,4.038,4.0372,4.0365,4.0378,4.0327,4.0322,4.0317,4.03,4.0294,4.0371,4.0371,4.0372,4.0372,0,4.05,4.0482,4.0465,4.0451,4.044,4.0418,4.0419,4.0407,4.0412,4.041,4.0381,4.0372,4.0353,4.0345,4.0349,4.031,4.0316,4.0327,4.0345,4.0309,4.0293,4.0287,4.0369,4.037,4.037,4.037,0,0,4.0441,4.0432,4.0425,4.0419,4.0409,4.0395,4.0372,4.0356,4.0345,4.0333,4.0313,4.0287,4.0297,4.0286,4.0289,4.0271,4.0234,4.0284,4.0284,4.0274,4.0189,4.018,4.0172,4.0239,4.0238,4.0237,4.0189,0,4.0397,4.036,4.0365,4.0329,4.0312,4.0324,4.0304,4.0295,4.0293,4.0277,4.0274,4.0255,4.027,4.0264,4.0247,4.0242,4.0216,4.0246,4.0218,4.0217,4.022,4.0164,4.0155,4.011,4.0183,4.0182,4.0181,0,4.0341,4.0329,4.0292,4.0284,4.0277,4.026,4.0245,4.023,4.0219,4.0218,4.0207,4.0213,4.0188,4.0209,4.0174,4.0194,4.0183,4.0179,4.0177,4.0174,4.0196,4.0158,4.0096,4.0089,4.0172,4.0173,4.0173,0,4.03,4.0275,4.0249,4.0244,4.0235,4.0222,4.0217,4.0208,4.0197,4.0183,4.0176,4.0159,4.0149,4.0135,4.0135,4.015,4.01,4.012,4.0097,4.0097,4.0084,4.0085,4.0019,4.008,4.008,4.008,4.008,0,4.025,4.0226,4.0231,4.0215,4.0188,4.0194,4.0166,4.0163,4.0155,4.0137,4.0146,4.0128,4.013,4.0112,4.0112,4.0083,4.0078,4.0076,4.0076,4.0074,4.0075,4.0066,4.0069,4.0078,4.0079,4.0079,4.0079,0,4.02,4.0202,4.0175,4.0169,4.0167,4.0147,4.0141,4.0125,4.0124,4.0101,4.0096,4.0094,4.0073,4.0072,4.0048,4.0047,4.0011,4.0015,4.0015,4.0016,3.9992,3.9994,3.9917,3.9907,3.9975,3.9975,3.9974,0,4.0167,4.0149,4.0142,4.0132,4.0127,4.011,4.0099,4.0104,4.0092,4.0079,4.0064,4.0044,4.0029,3.9995,3.999,3.9971,3.9973,3.9948,3.997,3.9969,3.9971,3.9972,3.997,3.9943,3.9942,3.9942,3.9941,0,4.0108,4.0111,4.0096,4.0082,4.007,4.0059,4.0048,4.0039,4.0042,4.0028,4.0008,3.9996,3.9972,3.9952,3.9934,3.9927,3.9933,3.9934,3.9928,3.9925,3.9926,3.9924,4.0002,3.9936,3.9936,3.9937,3.9937,3.9937,4.0065,4.0049,4.0042,4.0025,4.0019,4.0009,3.9993,3.9991,3.9975,3.9957,3.996,3.9937,3.9926,3.9902,3.9894,3.9875,3.9883,3.9874,3.9871,3.9868,3.9865,3.993,3.9871,3.9871,3.9872,3.9872,3.9872,0,4.0006,4.0002,3.9987,3.9973,3.9959,3.997,3.9958,3.9946,3.9926,3.9916,3.9901,3.9877,3.9858,3.9852,3.9832,3.9818,3.982,3.9813,3.9813,3.9811,3.9859,3.9867,3.9811,3.9811,3.9811,3.9811,3.9811,3.9811,3.9973,3.9947,3.9949,3.9919,3.9915,3.9894,3.9886,3.9876,3.9868,3.9842,3.9827,3.9823,3.9814,3.9794,3.9776,3.9775,3.9766,3.9757,3.9756,3.9802,3.9808,3.9813,3.982,3.9755,3.9755,3.9709,3.9709,3.9709]}]]